Home   Weather   San Fernando   Past weeks

Flag for Trinidad and Tobago Past Weather in San Fernando, Trinidad and Tobago — Yesterday and Last 2 Weeks

Now
79 °F

Passing clouds.


Feels Like: 82 °F
Forecast: 77 / 86 °F
Wind: 7 mph from East

Location: Piarco International Airport - Trinidad

Current Time: Dec 10, 2016 at 1:07:42 am

Latest Report: Dec 10, 2016 at 12:00 am


Visibility: N/A

Pressure: 29.92 "Hg

Humidity: 89%

Dew Point: 75 °F

Location of San FernandoLocation

Past Weather in San Fernando — Graph

°F

San Fernando Temperature Yesterday

Maximum temperature yesterday: 90 °F (at 12:00 pm)
Minimum temperature yesterday: 75 °F (at 4:00 am)
Average temperature yesterday: 81 °F

High & Low Weather Summary for the Past Weeks

 TemperatureHumidityPressure
High91 °F (Dec 1, 2:00 pm)100% (Nov 25, 12:00 am)29.98 "Hg (Nov 25, 12:00 am)
Low73 °F (Nov 25, 10:00 am)55% (Dec 2, 11:00 am)29.74 "Hg (Nov 28, 3:00 pm)
Average80 °F85%29.87 "Hg
* Reported Nov 25 12:00 am — Dec 10 12:00 am, San Fernando, Weather by CustomWeather, © 2016

Note: Actual official high and low records may vary slightly from our data, if they occured in-between our weather recording intervals... More about our weather records

Advertising

San Fernando Weather History for the Previous 24 Hours

Scroll right to see more
 ConditionsComfort  
Time TempWeatherWind HumidityBarometerVisibility
12:00 am
Sat, Dec 10
79 °FPassing clouds.7 mph89%29.92 "HgN/A
11:00 pm
Fri, Dec 9
79 °FPassing clouds.6 mph89%29.92 "HgN/A
10:00 pm79 °FScattered showers. Passing clouds.12 mph89%29.92 "HgN/A
9:00 pm79 °FPassing clouds.6 mph89%29.92 "HgN/A
8:00 pm81 °FPassing clouds.10 mph84%29.92 "HgN/A
7:00 pm81 °FPassing clouds.12 mph84%29.89 "HgN/A
6:00 pm82 °FPassing clouds.13 mph84%29.86 "HgN/A
5:00 pm82 °FPassing clouds.13 mph79%29.86 "HgN/A
4:00 pm84 °FPassing clouds.14 mph79%29.86 "HgN/A
3:00 pm82 °FPassing clouds.14 mph79%29.86 "HgN/A
2:00 pm77 °FScattered clouds.3 mph94%29.89 "HgN/A
1:00 pm86 °FScattered showers. Scattered clouds.16 mph70%29.89 "Hg5 mi
12:00 pm90 °FScattered clouds.18 mph63%29.89 "HgN/A
11:00 am88 °FScattered clouds.20 mph66%29.92 "HgN/A
9:00 am88 °FPassing clouds.12 mph70%29.95 "HgN/A
8:00 am82 °FPassing clouds.6 mph84%29.92 "HgN/A
7:00 am77 °FPassing clouds.5 mph94%29.89 "HgN/A
6:00 am77 °FScattered showers. Passing clouds.No wind94%29.89 "HgN/A
5:00 am77 °FPassing clouds.No wind94%29.86 "HgN/A
4:00 am75 °FPassing clouds.No wind100%29.86 "HgN/A
1:00 am77 °FPassing clouds.No wind89%29.89 "HgN/A
Weather by CustomWeather, © 2016

See weather overviewHow to use our weather pages